Dewpoint
-7 -8 -8 -7 -10 -10 -11 -12 -12 -13 -13 -13 -13 -14 -14 -15 -12 -13 -13 -12 -11 -11 -11 -11 -9 -8 -6 -7 -8 -8 -9 -12 -11 -13 -13 -12 -13 -13 -13 -12 -12 -11
-6 -6 -4 -7 -6 -1 -5 -12 -13 -13 -13 -13 -13 -14 -15 -14 -14 -12 -14 -13 -12 -11 -12 -11 -11 -10 -11 -11 -12 -12 -12 -11 -12 -10 -12 -13 -12 -12 -13 -13 -13 -12
-6 -7 -8 -8 -10 -10 -7 -6 -9 -11 -11 -11 -12 -14 -15 -12 -14 -14 -13 -14 -14 -12 -12 -10 -11 -10 -10 -11 -12 -11 -10 -10 -10 -11 -9 -10 -11 -11 -12 -12 -12 -12
-7 -8 -9 -9 -9 -10 -10 -8 -7 -7 -9 -12 -13 -14 -13 -14 -13 -14 -14 -5 -12 -13 -12 -11 -11 -12 -11 -12 -11 -10 -11 -11 -11 -11 -11 -9 -8 -9 -10 -11 -9 -10
-7 -9 -11 -11 -11 -10 -11 -12 -13 -13 -13 -13 -14 -13 -10 -11 -12 -13 -13 -13 -11 -11 -9 -10 -11 -12 -12 -12 -12 -11 -11 -10 -11 -11 -11 -11 -10 -9 -10 -9 -9 -9
-8 -10 -10 -12 -12 -12 -13 -13 -13 -13 -13 -14 -14 -12 -13 -13 -13 -13 -12 -12 -12 -12 -12 -11 -12 -12 -12 -12 -12 -12 -12 -11 -11 -12 -12 -12 -11 -10 -10 -10 -9 -8
-10 -11 -12 -12 -12 -13 -13 -13 -12 -9 -13 -13 -12 -12 -12 -13 -13 -13 -13 -12 -13 -11 -12 -13 -13 -13 -12 -12 -12 -11 -11 -12 -12 -12 -12 -11 -10 -11 -11 -10 -9 -8
-10 -11 -11 -12 -12 -12 -11 -12 -12 -11 -10 -10 -12 -13 -12 -13 -13 -13 -11 -12 -12 -13 -13 -13 -12 -13 -13 -12 -11 -11 -12 -12 -11 -11 -11 -11 -10 -11 -10 -9 -9 -8
-11 -12 -12 -12 -12 -12 -12 -12 -11 -11 -11 -11 -11 -11 -10 -11 -11 -11 -11 -11 -12 -11 -12 -13 -12 -12 -12 -11 -10 -10 -11 -11 -11 -11 -11 -11 -10 -10 -10 -10 -9 -8
-11 -12 -12 -12 -12 -12 -12 -13 -12 -12 -10 -11 -11 -11 -10 -10 -10 -11 -11 -12 -12 -11 -11 -12 -12 -11 -10 -10 -9 -10 -10 -9 -10 -10 -10 -10 -9 -9 -10 -9 -8 -9
-12 -12 -12 -12 -12 -13 -13 -13 -11 -12 -11 -10 -11 -10 -10 -11 -10 -10 -11 -11 -12 -11 -11 -12 -11 -10 -10 -10 -10 -10 -10 -9 -8 -7 -7 -8 -8 -8 -6 -7 -8 -9
-12 -12 -13 -13 -13 -13 -13 -12 -11 -11 -11 -10 -8 -10 -11 -11 -11 -11 -9 -11 -11 -11 -11 -11 -10 -10 -10 -10 -10 -10 -9 -9 -7 -7 -8 -8 -8 -8 -8 -8 -8 -9
-12 -12 -12 -13 -12 -11 -11 -10 -11 -11 -11 -11 -9 -10 -11 -11 -10 -10 -9 -9 -9 -9 -9 -9 -9 -9 -9 -10 -9 -9 -8 -8 -8 -8 -9 -8 -8 -8 -8 -8 -8 -8
-12 -12 -12 -12 -12 -10 -10 -10 -9 -10 -10 -11 -9 -11 -10 -10 -10 -9 -9 -8 -9 -9 -8 -8 -8 -9 -9 -9 -8 -8 -8 -9 -8 -9 -9 -9 -8 -8 -8 -9 -9 -9
-12 -12 -12 -11 -9 -10 -10 -10 -10 -11 -11 -11 -10 -7 -8 -8 -8 -8 -8 -8 -8 -8 -8 -8 -8 -8 -8 -8 -9 -9 -10 -10 -9 -9 -8 -9 -9 -9 -9 -9 -9 -9
-12 -11 -11 -11 -11 -11 -11 -11 -12 -11 -10 -11 -10 -9 -9 -8 -9 -8 -8 -8 -9 -8 -9 -10 -9 -9 -6 -2 2 -4 -7 -8 -8 -7 -7 -7 -7 -8 -8 -9 -9 -9
-12 -12 -11 -11 -11 -12 -12 -12 -10 -11 -11 -10 -10 -10 -10 -10 -9 -8 -9 -9 -10 -10 -10 -10 -10 -9 -3 7 9 11 4 2 0 -0 -1 -1 -2 -4 -5 -5 -6 -7
-12 -12 -12 -12 -12 -12 -12 -11 -11 -11 -11 -10 -11 -10 -9 -10 -11 -10 -10 -10 -10 -11 -11 -10 -10 -5 7 9 11 11 9 2 2 1 1 1 0 -0 -2 -2 -3 -3
-12 -12 -12 -12 -11 -11 -11 -10 -10 -10 -11 -12 -11 -10 -12 -13 -9 -8 -10 -10 -11 -10 -11 -11 -11 2 8 10 11 11 11 6 1 1 1 1 0 -0 -1 -2 -3 -4
-11 -11 -11 -11 -11 -11 -11 -10 -11 -11 -11 -11 -12 -11 -10 -10 -11 -10 -9 -11 -11 -12 -11 -11 -11 -7 7 10 11 11 11 7 1 2 2 1 1 0 -2 -4 -6 -7
-10 -11 -10 -11 -10 -10 -11 -11 -11 -11 -10 -10 -11 -9 -9 -10 -11 -11 -11 -11 -12 -12 -12 -12 -12 3 9 10 11 11 11 8 2 2 1 -0 -1 -3 -4 -6 -7 -8
-10 -11 -10 -10 -9 -10 -11 -10 -10 -11 -11 -10 -11 -10 -11 -12 -11 -12 -12 -12 -11 -12 -13 -12 -12 6 9 11 11 11 11 3 3 2 1 -1 -4 -6 -8 -8 -8 -9
-9 -9 -9 -9 -10 -11 -11 -11 -10 -11 -11 -12 -12 -10 -9 -10 -11 -11 -11 -11 -11 -12 -13 -12 -12 -1 7 9 10 11 8 2 1 -1 -3 -4 -5 -7 -9 -9 -9 -10
-8 -8 -9 -9 -11 -11 -11 -9 -9 -11 -11 -11 -10 -11 -10 -11 -11 -11 -11 -11 -11 -12 -12 -12 -12 -7 5 8 10 11 7 2 2 -0 -1 -2 -4 -7 -9 -9 -9 -5
-7 -8 -9 -9 -10 -9 -11 -10 -10 -10 -10 -13 -11 -13 -11 -12 -12 -12 -12 -11 -11 -12 -9 -10 -11 -9 4 7 9 9 5 1 -0 -2 -4 -5 -6 -7 -9 -9 -9 -6
-8 -8 -9 -9 -9 -11 -11 -11 -11 -14 -13 -12 -12 -13 -12 -12 -13 -13 -13 -12 -12 -12 -13 -12 -13 -13 -10 5 7 9 9 1 0 -2 -3 -4 -5 -7 -10 -11 -11 -10